Weather History for Caldwell, NJ

Change the Weather History Date:

Wednesday, October 9, 2013

  Actual Average Record
Temperature  
Mean Temperature 54 °F -  
Max Temperature 61 °F 66 °F 84 °F (2011)
Min Temperature 46 °F 43 °F 28 °F (2001)
Degree Days  
Heating Degree Days 12    
Growing Degree Days 4 (Base 50)    
Moisture  
Dew Point 44 °F    
Average Humidity 71    
Maximum Humidity 86    
Minimum Humidity 52    
Precipitation  
Precipitation 0.00 in - - ()
Sea Level Pressure  
Sea Level Pressure 30.37 in    
Wind  
Wind Speed 3 mph (ENE)    
Max Wind Speed 15 mph    
Max Gust Speed 18 mph    
Visibility 10 miles    
Events      
Averages and records for this station are not official NWS values.
T = Trace of Precipitation, MM = Missing Value Source: NWS Daily Summary

Daily Weather History Graph

Daily Weather History Graph

Search for Another Location

Airport:

Trip Planner

Search our weather history database for the weather conditions in past years. The results will help you decide how hot, cold, wet, or windy it might be!

Date:

Astronomy

Oct. 09, 2013 Rise Set
Actual Time 7:02 AM EDT 6:25 PM EDT
Civil Twilight 6:34 AM EDT 6:53 PM EDT
Nautical Twilight 6:02 AM EDT 7:24 PM EDT
Astronomical Twilight 5:31 AM EDT 7:56 PM EDT
Moon 11:56 AM EDT (10/9) 9:56 PM EDT (10/9)
Length of Visible Light 12h 18m
Length of Day
11h 23m
Waxing Crescent, 25% of the Moon is Illuminated
Oct 9
Waxing Crescent
Oct 11
First Quarter
Oct 18
Full
Oct 26
Last Quarter
Nov 3
New

Hourly Weather History & Observations

Time (EDT) Temp. Dew Point Humidity Pressure Visibility Wind Dir Wind Speed Gust Speed Precip Events Conditions
12:53 AM 50.0 °F 45.0 °F 83% 30.36 in 10.0 mi Calm Calm - N/A   Clear
1:53 AM 48.9 °F 44.1 °F 83% 30.36 in 10.0 mi Calm Calm - N/A   Clear
2:53 AM 48.0 °F 43.0 °F 83% 30.37 in 10.0 mi Calm Calm - N/A   Clear
3:53 AM 46.9 °F 43.0 °F 86% 30.37 in 10.0 mi Calm Calm - N/A   Clear
4:53 AM 48.0 °F 42.1 °F 80% 30.37 in 10.0 mi Calm Calm - N/A   Clear
5:53 AM 48.9 °F 39.0 °F 69% 30.38 in 10.0 mi ENE 4.6 mph - N/A   Clear
6:53 AM 48.9 °F 39.0 °F 69% 30.39 in 10.0 mi NE 3.5 mph - N/A   Clear
7:53 AM 48.0 °F 39.9 °F 74% 30.42 in 10.0 mi Calm Calm - N/A   Clear
8:53 AM 51.1 °F 42.1 °F 71% 30.44 in 10.0 mi NE 3.5 mph - N/A   Clear
9:53 AM 54.0 °F 42.1 °F 64% 30.43 in 10.0 mi NE 10.4 mph - N/A   Clear
10:53 AM 55.0 °F 43.0 °F 64% 30.43 in 10.0 mi ENE 11.5 mph - N/A   Clear
11:53 AM 57.0 °F 43.0 °F 59% 30.42 in 10.0 mi NE 11.5 mph 18.4 mph N/A   Clear
12:53 PM 57.9 °F 43.0 °F 58% 30.41 in 10.0 mi ESE 11.5 mph - N/A   Clear
1:53 PM 60.1 °F 43.0 °F 53% 30.39 in 10.0 mi East 15.0 mph 18.4 mph N/A   Clear
2:53 PM 61.0 °F 43.0 °F 52% 30.38 in 10.0 mi East 9.2 mph - N/A   Clear
3:53 PM 60.1 °F 43.0 °F 53% 30.38 in 10.0 mi East 8.1 mph 17.3 mph N/A   Clear
4:53 PM 60.1 °F 43.0 °F 53% 30.37 in 10.0 mi ENE 5.8 mph - N/A   Clear
5:53 PM 57.9 °F 43.0 °F 58% 30.36 in 10.0 mi ENE 5.8 mph - N/A   Clear
6:53 PM 57.0 °F 44.1 °F 62% 30.36 in 10.0 mi Calm Calm - N/A   Clear
7:53 PM 53.1 °F 46.0 °F 77% 30.34 in 10.0 mi Calm Calm - N/A   Clear
8:53 PM 53.1 °F 46.0 °F 77% 30.34 in 10.0 mi Calm Calm - N/A   Clear
9:53 PM 52.0 °F 46.9 °F 83% 30.34 in 10.0 mi Calm Calm - N/A   Clear
10:46 PM 51.8 °F 46.4 °F 82% 30.32 in 10.0 mi North 3.5 mph - N/A   Mostly Cloudy
10:53 PM 52.0 °F 46.9 °F 83% 30.34 in 10.0 mi Calm Calm - N/A   Mostly Cloudy
11:09 PM 51.8 °F 46.4 °F 82% 30.32 in 10.0 mi Calm Calm - N/A   Scattered Clouds
11:53 PM 51.1 °F 46.9 °F 86% 30.33 in 10.0 mi Calm Calm - N/A   Clear